Time,TemperatureF,DewpointF,PressureIn,WindDirection,WindDirectionDegrees,WindSpeedMPH,WindSpeedGustMPH,Humidity,HourlyPrecipIn,Conditions,Clouds,dailyrainin,SoftwareType,DateUTC
2013-11-08 00:07:00,47.5,45.0,29.93,South,188,2.0,8.0,92,0.00,,,0.02,weatherlink.com 1.10,2013-11-08 08:07:00,
2013-11-08 00:22:00,47.6,45.0,29.93,SSW,195,5.0,9.0,91,0.00,,,0.02,weatherlink.com 1.10,2013-11-08 08:22:00,
2013-11-08 00:37:00,47.6,45.0,29.93,SSW,192,1.0,8.0,91,0.00,,,0.02,weatherlink.com 1.10,2013-11-08 08:37:00,
2013-11-08 00:52:00,47.7,45.0,29.95,SSW,208,7.0,11.0,91,0.00,,,0.02,weatherlink.com 1.10,2013-11-08 08:52:00,
2013-11-08 01:07:00,47.8,45.0,29.95,SSW,201,9.0,11.0,90,0.00,,,0.00,weatherlink.com 1.10,2013-11-08 09:07:00,
2013-11-08 01:22:00,47.8,45.0,29.95,South,180,2.0,11.0,90,0.00,,,0.00,weatherlink.com 1.10,2013-11-08 09:22:00,
2013-11-08 01:37:00,47.6,45.0,29.96,South,186,0.0,10.0,90,0.00,,,0.00,weatherlink.com 1.10,2013-11-08 09:37:00,
2013-11-08 01:52:00,47.7,45.0,29.96,South,179,0.0,11.0,90,0.00,,,0.00,weatherlink.com 1.10,2013-11-08 09:52:00,
2013-11-08 02:07:00,47.6,45.0,29.97,South,181,2.0,9.0,89,0.00,,,0.00,weatherlink.com 1.10,2013-11-08 10:07:00,
2013-11-08 02:22:00,47.5,45.0,29.97,SSW,192,2.0,7.0,89,0.00,,,0.00,weatherlink.com 1.10,2013-11-08 10:22:00,
2013-11-08 02:37:00,47.5,45.0,29.98,SSW,209,0.0,7.0,92,0.00,,,0.00,weatherlink.com 1.10,2013-11-08 10:37:00,
2013-11-08 02:52:00,47.4,44.0,29.98,South,187,4.0,5.0,87,0.00,,,0.00,weatherlink.com 1.10,2013-11-08 10:52:00,
2013-11-08 03:07:00,47.4,44.0,29.99,SSW,194,0.0,6.0,88,0.00,,,0.00,weatherlink.com 1.10,2013-11-08 11:07:00,
2013-11-08 03:22:00,47.4,44.0,29.99,South,180,0.0,7.0,88,0.00,,,0.00,weatherlink.com 1.10,2013-11-08 11:22:00,
2013-11-08 03:37:00,47.5,44.0,29.99,SW,221,0.0,9.0,88,0.00,,,0.00,weatherlink.com 1.10,2013-11-08 11:37:00,
2013-11-08 03:52:00,47.5,44.0,30.00,South,184,0.0,7.0,88,0.00,,,0.00,weatherlink.com 1.10,2013-11-08 11:52:00,
2013-11-08 04:07:00,47.7,44.0,30.00,South,182,0.0,10.0,88,0.00,,,0.00,weatherlink.com 1.10,2013-11-08 12:07:00,
2013-11-08 04:22:00,47.7,44.0,30.01,SSW,202,0.0,3.0,88,0.00,,,0.00,weatherlink.com 1.10,2013-11-08 12:22:00,
2013-11-08 04:37:00,47.4,44.0,30.01,South,169,0.0,5.0,88,0.00,,,0.00,weatherlink.com 1.10,2013-11-08 12:37:00,
2013-11-08 04:52:00,47.2,44.0,30.01,South,169,0.0,1.0,89,0.00,,,0.00,weatherlink.com 1.10,2013-11-08 12:52:00,
2013-11-08 05:07:00,47.1,44.0,30.01,South,178,0.0,2.0,89,0.00,,,0.00,weatherlink.com 1.10,2013-11-08 13:07:00,
2013-11-08 05:22:00,47.1,44.0,30.02,SE,144,0.0,1.0,90,0.00,,,0.00,weatherlink.com 1.10,2013-11-08 13:22:00,
2013-11-08 05:37:00,47.3,44.0,30.03,SSW,200,0.0,2.0,89,0.00,,,0.00,weatherlink.com 1.10,2013-11-08 13:37:00,
2013-11-08 05:52:00,47.1,44.0,30.03,SSW,200,0.0,1.0,90,0.00,,,0.00,weatherlink.com 1.10,2013-11-08 13:52:00,
2013-11-08 06:07:00,46.7,44.0,30.04,SSW,200,1.0,1.0,91,0.00,,,0.00,weatherlink.com 1.10,2013-11-08 14:07:00,
2013-11-08 06:22:00,46.5,44.0,30.04,SSW,199,0.0,3.0,91,0.00,,,0.00,weatherlink.com 1.10,2013-11-08 14:22:00,
2013-11-08 06:38:00,46.5,44.0,30.04,SSW,199,0.0,0.0,92,0.00,,,0.00,weatherlink.com 1.10,2013-11-08 14:38:00,
2013-11-08 06:53:00,46.5,44.0,30.04,SSW,199,2.0,3.0,92,0.00,,,0.00,weatherlink.com 1.10,2013-11-08 14:53:00,
2013-11-08 07:08:00,46.6,44.0,30.04,SSW,199,0.0,3.0,91,0.00,,,0.00,weatherlink.com 1.10,2013-11-08 15:08:00,
2013-11-08 07:23:00,46.7,44.0,30.05,SSW,199,0.0,0.0,91,0.00,,,0.00,weatherlink.com 1.10,2013-11-08 15:23:00,
2013-11-08 07:38:00,46.7,44.0,30.06,SSW,199,0.0,0.0,91,0.00,,,0.00,weatherlink.com 1.10,2013-11-08 15:38:00,
2013-11-08 07:53:00,46.7,44.0,30.06,SSW,199,0.0,1.0,91,0.00,,,0.00,weatherlink.com 1.10,2013-11-08 15:53:00,
2013-11-08 08:08:00,46.9,45.0,30.07,SSW,199,0.0,0.0,92,0.00,,,0.00,weatherlink.com 1.10,2013-11-08 16:08:00,
2013-11-08 08:23:00,47.2,45.0,30.07,SSW,199,0.0,0.0,91,0.00,,,0.00,weatherlink.com 1.10,2013-11-08 16:23:00,
2013-11-08 08:38:00,47.5,45.0,30.08,SSW,199,0.0,0.0,91,0.00,,,0.00,weatherlink.com 1.10,2013-11-08 16:38:00,
2013-11-08 08:53:00,47.6,44.0,30.08,SSW,199,0.0,5.0,88,0.00,,,0.00,weatherlink.com 1.10,2013-11-08 16:53:00,
2013-11-08 09:08:00,48.0,45.0,30.08,SSW,200,0.0,3.0,88,0.00,,,0.00,weatherlink.com 1.10,2013-11-08 17:08:00,
2013-11-08 09:23:00,48.5,44.0,30.09,South,182,1.0,2.0,85,0.00,,,0.00,weatherlink.com 1.10,2013-11-08 17:23:00,
2013-11-08 09:38:00,48.4,44.0,30.09,SSW,198,1.0,9.0,83,0.00,,,0.00,weatherlink.com 1.10,2013-11-08 17:38:00,
2013-11-08 09:53:00,48.6,44.0,30.09,SSW,197,0.0,3.0,84,0.00,,,0.00,weatherlink.com 1.10,2013-11-08 17:53:00,
2013-11-08 10:08:00,48.6,44.0,30.09,SSW,197,0.0,4.0,84,0.00,,,0.00,weatherlink.com 1.10,2013-11-08 18:08:00,
2013-11-08 10:23:00,48.5,44.0,30.09,SSW,197,0.0,3.0,84,0.00,,,0.00,weatherlink.com 1.10,2013-11-08 18:23:00,
2013-11-08 10:38:00,48.8,45.0,30.09,SSW,197,0.0,0.0,86,0.00,,,0.00,weatherlink.com 1.10,2013-11-08 18:38:00,
2013-11-08 11:08:00,49.3,45.0,30.09,SSW,194,2.0,7.0,84,0.00,,,0.00,weatherlink.com 1.10,2013-11-08 19:08:00,
2013-11-08 11:23:00,49.6,45.0,30.09,SSW,194,0.0,4.0,83,0.00,,,0.00,weatherlink.com 1.10,2013-11-08 19:23:00,
2013-11-08 11:38:00,50.3,45.0,30.09,SSW,193,0.0,3.0,81,0.00,,,0.00,weatherlink.com 1.10,2013-11-08 19:38:00,
2013-11-08 11:53:00,49.9,45.0,30.09,South,186,0.0,7.0,82,0.00,,,0.00,weatherlink.com 1.10,2013-11-08 19:53:00,
2013-11-08 12:08:00,49.8,45.0,30.09,South,180,0.0,4.0,84,0.00,,,0.00,weatherlink.com 1.10,2013-11-08 20:08:00,
2013-11-08 12:23:00,50.0,46.0,30.08,South,180,0.0,0.0,85,0.00,,,0.00,weatherlink.com 1.10,2013-11-08 20:23:00,
2013-11-08 12:38:00,50.3,45.0,30.08,NE,51,0.0,4.0,83,0.00,,,0.00,weatherlink.com 1.10,2013-11-08 20:38:00,
2013-11-08 12:53:00,51.0,45.0,30.07,South,186,0.0,10.0,79,0.00,,,0.00,weatherlink.com 1.10,2013-11-08 20:53:00,
2013-11-08 13:08:00,51.6,45.0,30.07,South,184,9.0,11.0,77,0.00,,,0.00,weatherlink.com 1.10,2013-11-08 21:08:00,
2013-11-08 13:23:00,52.0,45.0,30.07,SSW,206,4.0,12.0,78,0.00,,,0.00,weatherlink.com 1.10,2013-11-08 21:23:00,
2013-11-08 13:38:00,51.4,45.0,30.07,South,186,0.0,7.0,79,0.00,,,0.00,weatherlink.com 1.10,2013-11-08 21:38:00,
2013-11-08 13:53:00,52.5,45.0,30.07,SSW,205,0.0,8.0,76,0.00,,,0.00,weatherlink.com 1.10,2013-11-08 21:53:00,
2013-11-08 14:08:00,52.1,45.0,30.07,SSW,200,5.0,7.0,77,0.00,,,0.00,weatherlink.com 1.10,2013-11-08 22:08:00,
2013-11-08 14:23:00,51.2,45.0,30.08,SSW,208,3.0,9.0,78,0.00,,,0.00,weatherlink.com 1.10,2013-11-08 22:23:00,
2013-11-08 14:38:00,52.0,45.0,30.07,South,184,0.0,7.0,78,0.00,,,0.00,weatherlink.com 1.10,2013-11-08 22:38:00,
2013-11-08 14:53:00,51.9,45.0,30.08,South,182,2.0,5.0,77,0.00,,,0.00,weatherlink.com 1.10,2013-11-08 22:53:00,
2013-11-08 15:08:00,52.3,45.0,30.07,South,191,0.0,5.0,76,0.00,,,0.00,weatherlink.com 1.10,2013-11-08 23:08:00,
2013-11-08 15:23:00,52.4,45.0,30.07,SSW,198,3.0,8.0,75,0.00,,,0.00,weatherlink.com 1.10,2013-11-08 23:23:00,
2013-11-08 15:38:00,52.3,45.0,30.07,SSW,195,0.0,4.0,76,0.00,,,0.00,weatherlink.com 1.10,2013-11-08 23:38:00,
2013-11-08 15:53:00,51.8,44.0,30.08,SSW,203,4.0,11.0,76,0.00,,,0.00,weatherlink.com 1.10,2013-11-08 23:53:00,
2013-11-08 16:08:00,51.3,44.0,30.08,South,181,0.0,3.0,77,0.00,,,0.00,weatherlink.com 1.10,2013-11-09 00:08:00,
2013-11-08 16:23:00,50.7,44.0,30.08,South,181,0.0,1.0,79,0.00,,,0.00,weatherlink.com 1.10,2013-11-09 00:23:00,
2013-11-08 16:38:00,49.9,44.0,30.08,South,181,0.0,0.0,80,0.00,,,0.00,weatherlink.com 1.10,2013-11-09 00:38:00,
2013-11-08 16:53:00,49.2,44.0,30.08,South,181,0.0,0.0,82,0.00,,,0.00,weatherlink.com 1.10,2013-11-09 00:53:00,
2013-11-08 17:08:00,48.7,43.0,30.08,South,181,0.0,0.0,82,0.00,,,0.00,weatherlink.com 1.10,2013-11-09 01:08:00,
2013-11-08 17:23:00,48.4,44.0,30.08,South,180,0.0,2.0,83,0.00,,,0.00,weatherlink.com 1.10,2013-11-09 01:23:00,
2013-11-08 17:38:00,47.9,43.0,30.08,South,180,0.0,0.0,83,0.00,,,0.00,weatherlink.com 1.10,2013-11-09 01:38:00,
2013-11-08 17:53:00,47.6,43.0,30.09,South,180,0.0,0.0,84,0.00,,,0.00,weatherlink.com 1.10,2013-11-09 01:53:00,
2013-11-08 18:08:00,47.2,43.0,30.09,South,180,0.0,0.0,86,0.00,,,0.00,weatherlink.com 1.10,2013-11-09 02:08:00,
2013-11-08 18:23:00,47.1,43.0,30.09,South,180,0.0,0.0,86,0.00,,,0.00,weatherlink.com 1.10,2013-11-09 02:23:00,
2013-11-08 18:38:00,47.1,44.0,30.09,South,180,0.0,0.0,87,0.00,,,0.00,weatherlink.com 1.10,2013-11-09 02:38:00,
2013-11-08 18:54:00,46.9,43.0,30.09,South,180,0.0,0.0,87,0.00,,,0.00,weatherlink.com 1.10,2013-11-09 02:54:00,
2013-11-08 19:09:00,46.6,43.0,30.09,South,180,0.0,1.0,87,0.00,,,0.00,weatherlink.com 1.10,2013-11-09 03:09:00,
2013-11-08 19:24:00,46.4,43.0,30.09,South,180,0.0,0.0,88,0.00,,,0.00,weatherlink.com 1.10,2013-11-09 03:24:00,
2013-11-08 19:39:00,46.1,43.0,30.09,South,180,0.0,0.0,88,0.00,,,0.00,weatherlink.com 1.10,2013-11-09 03:39:00,
2013-11-08 19:54:00,45.8,43.0,30.09,South,180,0.0,0.0,89,0.00,,,0.00,weatherlink.com 1.10,2013-11-09 03:54:00,
2013-11-08 20:09:00,45.5,43.0,30.10,South,180,0.0,1.0,89,0.00,,,0.00,weatherlink.com 1.10,2013-11-09 04:09:00,
2013-11-08 20:24:00,45.0,42.0,30.11,South,180,0.0,0.0,90,0.00,,,0.00,weatherlink.com 1.10,2013-11-09 04:24:00,
2013-11-08 20:39:00,44.8,42.0,30.11,South,180,0.0,0.0,91,0.00,,,0.00,weatherlink.com 1.10,2013-11-09 04:39:00,
2013-11-08 20:54:00,44.6,42.0,30.11,South,180,0.0,0.0,91,0.00,,,0.00,weatherlink.com 1.10,2013-11-09 04:54:00,
2013-11-08 21:09:00,44.7,42.0,30.11,South,173,0.0,2.0,91,0.00,,,0.00,weatherlink.com 1.10,2013-11-09 05:09:00,
2013-11-08 21:24:00,44.6,42.0,30.11,SSE,153,0.0,0.0,91,0.00,,,0.00,weatherlink.com 1.10,2013-11-09 05:24:00,
2013-11-08 21:39:00,44.4,42.0,30.11,SSE,153,0.0,0.0,91,0.00,,,0.00,weatherlink.com 1.10,2013-11-09 05:39:00,
2013-11-08 21:54:00,44.1,42.0,30.11,SSE,153,0.0,1.0,91,0.00,,,0.00,weatherlink.com 1.10,2013-11-09 05:54:00,
2013-11-08 22:09:00,43.8,42.0,30.11,SSE,153,0.0,0.0,92,0.00,,,0.00,weatherlink.com 1.10,2013-11-09 06:09:00,
2013-11-08 22:24:00,43.6,42.0,30.11,SSE,153,0.0,0.0,92,0.00,,,0.00,weatherlink.com 1.10,2013-11-09 06:24:00,
2013-11-08 22:39:00,43.6,42.0,30.11,SSE,153,0.0,0.0,93,0.00,,,0.00,weatherlink.com 1.10,2013-11-09 06:39:00,
2013-11-08 22:54:00,43.6,42.0,30.11,SE,136,0.0,2.0,93,0.00,,,0.00,weatherlink.com 1.10,2013-11-09 06:54:00,
2013-11-08 23:09:00,43.7,42.0,30.11,SE,136,0.0,0.0,93,0.00,,,0.00,weatherlink.com 1.10,2013-11-09 07:09:00,
2013-11-08 23:24:00,43.8,42.0,30.11,SE,136,0.0,0.0,93,0.00,,,0.00,weatherlink.com 1.10,2013-11-09 07:24:00,
2013-11-08 23:39:00,43.8,42.0,30.11,SE,136,0.0,0.0,93,0.00,,,0.00,weatherlink.com 1.10,2013-11-09 07:39:00,
2013-11-08 23:54:00,43.9,42.0,30.11,SE,136,0.0,0.0,92,0.00,,,0.00,weatherlink.com 1.10,2013-11-09 07:54:00,